Theta_e
317 313 311 309 312 312 312 312 310 306 307 307 306 305 307 308 313 313 314 315 314 313 310 308 306 305 305 306 306 306 306 305 306 306 306 307 308 308
313 311 309 308 308 309 311 311 311 310 307 307 305 303 305 304 311 310 309 310 310 307 305 304 303 304 303 304 303 304 303 303 303 304 303 304 307 308
311 310 308 309 308 308 307 309 309 309 306 301 303 299 300 304 301 303 302 301 305 307 304 304 303 303 302 302 302 302 303 301 302 302 303 304 305 306
310 309 308 309 307 308 309 309 308 307 304 300 298 298 298 299 299 297 297 297 299 302 303 303 303 303 302 303 302 302 301 300 300 301 303 303 303 303
310 309 307 307 306 306 307 305 305 305 305 302 297 298 298 298 296 295 295 296 297 301 302 304 302 303 303 301 302 301 299 299 299 300 301 300 301 301
309 308 308 308 307 306 305 303 303 301 301 299 296 295 296 295 296 293 293 295 294 295 298 300 301 302 302 301 301 299 298 298 298 298 299 299 299 299
307 307 307 309 310 307 303 300 300 298 297 296 294 294 293 294 294 294 293 294 295 296 297 296 297 297 296 295 296 298 298 297 298 298 298 298 299 300
305 307 308 309 308 307 305 303 299 296 295 296 294 293 291 293 294 294 294 293 292 295 294 295 294 295 295 297 296 298 297 297 296 297 297 297 297 298
303 303 303 303 302 302 305 304 303 301 299 297 294 293 292 293 293 293 293 293 293 293 293 292 293 293 295 296 298 296 295 295 295 296 296 297 297 296
299 299 299 300 300 297 296 295 295 295 296 295 295 294 294 294 293 293 292 292 292 293 292 290 293 292 293 294 293 294 293 294 294 295 295 296 296 296
300 300 300 300 300 298 296 295 296 296 299 299 298 298 297 295 293 293 291 291 290 291 291 290 292 290 291 292 294 293 293 293 294 294 295 295 296 296
300 301 301 301 300 298 296 296 295 295 295 295 296 295 296 296 294 292 291 289 288 288 292 290 290 290 288 292 293 293 293 292 292 293 294 294 295 295
297 298 299 300 299 297 296 296 296 295 294 293 293 293 293 294 294 292 293 291 289 289 292 292 290 290 289 288 291 292 292 291 292 292 291 292 293 294
296 297 298 298 300 299 298 298 299 295 294 293 292 291 292 292 293 293 293 293 294 292 293 293 290 289 288 287 286 290 291 292 292 291 291 291 292 292
297 297 296 297 297 297 297 295 293 293 292 291 290 290 291 292 293 293 293 293 293 293 292 292 292 290 288 286 286 287 287 289 291 290 290 290 290 291
295 294 295 294 294 293 292 293 293 292 291 290 291 292 293 293 292 292 291 291 290 290 292 292 292 290 287 288 288 287 288 286 290 289 289 290 291 291
292 290 290 289 289 289 289 290 290 291 290 291 290 290 290 290 290 291 290 289 288 287 288 290 291 290 290 288 286 287 287 287 288 288 288 288 290 291
291 289 289 289 288 288 288 288 289 289 289 290 289 289 287 286 287 288 288 288 286 286 287 288 288 287 287 288 289 287 287 286 288 288 288 285 285 289
290 290 289 289 288 288 288 288 288 289 289 289 287 287 288 287 286 286 286 287 286 287 286 287 287 285 282 281 287 289 285 286 286 285 287 287 285 288
291 290 289 289 289 288 288 288 289 289 289 287 286 286 285 284 284 285 286 285 286 285 286 286 286 285 283 282 283 286 288 286 285 285 285 287 289 291
291 290 290 289 289 289 289 289 289 288 288 288 288 287 286 285 283 284 285 284 285 284 283 284 286 288 288 288 284 284 286 288 287 286 285 284 285 287
292 290 290 289 289 289 289 289 288 288 288 288 287 287 286 285 285 284 284 284 284 284 284 286 287 287 286 283 281 282 284 286 288 287 287 286 284 282
292 291 291 289 289 289 289 288 288 287 287 286 287 286 284 284 284 285 284 284 284 284 284 284 285 285 283 283 282 282 282 283 284 284 285 287 287 288
Wind_Speed
10 9 4 3 2 3 5 4 3 2 7 5 3 4 3 3 3 4 4 7 7 8 6 5 4 3 4 4 6 6 6 6 6 7 7 7 8 7
8 10 7 4 5 2 3 2 1 2 3 0 2 1 3 3 5 5 5 5 7 5 4 3 2 3 3 3 3 4 5 5 5 7 5 7 7 6
9 12 11 7 4 3 3 3 4 2 2 2 1 1 2 4 4 4 4 3 3 2 3 4 3 2 2 1 3 4 5 4 6 8 6 6 5 7
11 10 9 6 5 3 3 6 5 2 4 3 1 1 3 2 2 3 3 4 3 2 2 4 5 4 2 4 5 4 2 3 5 6 5 5 6 7
11 10 10 10 7 4 4 4 4 3 3 3 3 1 1 1 3 3 3 3 3 3 4 5 2 5 5 2 2 3 2 1 4 7 8 6 7 9
10 9 8 7 7 6 5 5 4 4 2 3 3 2 1 1 2 2 2 2 2 2 4 5 5 5 4 3 3 3 2 2 4 5 5 6 7 8
10 9 8 10 11 8 4 5 5 3 3 3 3 2 1 2 2 1 2 2 2 2 1 1 2 1 2 2 2 2 3 3 3 5 7 9 10 11
10 9 9 13 13 15 14 10 5 4 3 3 2 2 3 3 2 1 1 2 3 2 3 1 2 2 2 3 5 5 3 5 4 7 9 10 10 11
10 9 9 8 9 9 15 15 14 12 7 4 5 4 4 3 1 1 1 1 1 2 3 3 1 3 2 2 4 2 3 6 7 8 10 11 12 9
9 10 11 10 10 10 10 11 10 10 9 8 10 8 7 5 3 2 2 1 1 1 2 3 1 2 3 3 5 1 3 7 8 9 10 12 10 9
12 11 11 10 11 11 10 10 10 10 12 14 12 11 10 9 6 2 3 1 1 1 0 3 1 4 3 3 3 6 6 8 9 9 11 11 10 10
11 12 14 10 10 8 7 7 8 7 6 6 6 6 6 7 7 2 2 3 3 1 3 3 2 3 2 2 2 4 4 7 7 10 11 11 10 6
9 8 7 12 11 9 6 4 6 6 6 5 5 3 2 2 2 3 2 2 3 3 1 3 3 3 3 4 3 5 5 6 5 6 5 5 8 8
9 8 9 12 12 12 7 9 11 6 3 2 2 2 2 1 1 1 1 4 3 5 4 4 3 4 4 6 7 5 6 6 4 4 3 7 8 10
8 12 13 12 12 10 12 10 7 3 3 2 2 2 2 2 2 2 3 4 4 3 3 3 3 4 4 6 7 7 8 5 3 3 4 6 6 6
13 9 11 11 11 8 7 6 4 4 3 3 2 2 1 2 2 2 3 3 4 3 4 4 3 4 5 6 6 8 5 4 6 6 6 7 6 6
9 5 4 4 5 4 4 4 3 3 3 3 2 3 3 3 3 3 3 3 3 4 4 4 3 5 6 7 7 4 4 5 6 7 7 7 7 6
4 4 4 4 4 3 3 3 3 3 3 3 3 3 3 3 4 2 2 3 3 3 4 4 5 6 5 3 4 5 4 6 6 7 7 6 7 7
4 4 3 3 3 3 3 2 3 3 3 3 4 4 3 3 5 3 3 4 5 4 4 4 5 4 6 7 2 3 8 7 7 8 7 7 9 9
3 3 3 3 3 3 3 2 2 2 3 3 3 3 3 4 4 4 4 5 5 3 5 4 4 5 6 6 7 7 8 8 7 8 8 8 9 14
4 3 3 4 3 3 3 3 3 2 2 2 2 2 3 3 4 4 4 6 7 5 5 5 5 10 6 5 6 7 6 7 9 8 8 8 8 6
4 4 4 4 4 3 3 3 3 2 2 2 2 3 3 3 3 4 5 6 6 6 6 6 7 5 6 6 8 10 8 7 8 8 10 8 4 5
4 4 4 4 4 4 3 3 3 3 3 2 2 3 3 4 4 4 5 5 6 7 7 7 6 6 7 7 10 8 11 10 7 7 7 8 11 13
Wind_Direction
175 150 121 105 45 329 104 117 124 179 222 191 180 187 186 181 161 165 134 122 118 119 125 120 106 73 45 33 30 23 10 1 352 356 345 342 341 332
136 124 110 91 77 48 66 110 131 211 263 280 173 136 170 169 134 126 112 106 117 120 122 129 113 76 60 58 31 23 3 2 348 350 330 344 333 360
128 128 114 117 112 135 145 144 142 146 136 99 89 52 106 135 83 73 84 79 115 201 234 222 200 148 105 34 348 313 326 353 344 338 326 327 10 4
127 120 126 118 119 125 101 117 115 147 117 139 133 95 87 65 90 84 70 71 60 45 316 279 215 201 198 257 288 298 86 10 334 317 342 348 355 349
127 120 128 128 126 116 120 109 77 65 66 133 129 95 91 93 78 75 80 79 68 35 48 25 338 195 240 228 178 114 116 354 344 352 353 347 340 333
103 116 120 121 138 136 108 95 101 95 88 90 93 109 134 152 148 132 142 78 65 36 54 38 41 44 58 31 193 185 169 331 330 355 346 341 321 318
93 97 99 117 116 113 115 102 98 92 102 115 129 130 135 144 155 106 153 163 133 20 276 53 349 10 24 355 306 294 201 283 3 338 335 334 321 315
103 90 84 88 91 95 96 103 121 120 121 120 93 101 85 75 86 119 154 201 221 68 311 224 333 260 308 297 302 266 133 343 329 315 308 304 302 303
98 100 95 86 80 84 89 88 83 80 77 100 111 80 87 48 69 143 133 276 291 50 306 285 291 270 310 290 336 120 27 309 303 303 304 302 301 296
91 98 101 100 99 102 99 89 80 71 75 83 91 96 97 96 55 30 49 92 187 158 339 283 12 300 319 294 298 265 288 301 297 301 308 310 303 300
92 92 96 103 108 105 106 109 103 101 101 105 111 118 115 113 104 116 72 27 37 61 119 307 33 313 295 286 232 255 314 305 294 300 303 302 292 300
97 96 93 99 105 110 116 125 121 120 121 103 94 84 99 138 145 90 123 42 12 269 147 285 304 318 290 157 241 277 283 297 296 294 299 297 288 280
100 95 89 89 92 100 115 135 136 139 132 139 138 133 123 80 150 159 208 326 326 307 81 277 306 325 302 309 295 298 302 303 300 297 295 292 301 296
107 102 99 96 90 96 114 122 137 125 129 140 140 123 38 48 86 153 280 306 296 292 311 283 285 297 304 306 307 309 311 305 299 304 294 307 290 287
111 103 99 94 78 80 77 77 83 94 99 104 84 65 25 9 357 340 332 330 305 304 327 329 288 303 286 290 297 303 315 311 307 304 310 306 296 298
103 98 97 94 86 85 80 69 67 69 64 65 61 43 18 4 352 352 322 334 311 323 343 348 316 291 290 285 289 294 313 303 323 314 314 303 293 286
115 108 102 96 99 94 88 76 71 71 74 69 48 24 12 354 355 351 351 335 320 333 331 334 337 311 288 277 288 291 307 311 314 315 316 311 302 299
109 120 115 110 107 103 91 80 70 61 54 46 48 32 10 345 327 34 340 311 336 314 319 341 330 333 326 317 247 294 312 316 319 315 311 308 300 314
113 119 117 127 124 123 117 81 79 70 75 43 20 17 13 4 9 357 348 331 328 330 339 334 333 327 323 322 16 226 321 322 317 311 312 305 301 300
121 137 134 132 136 133 119 107 109 96 82 59 36 25 13 1 355 345 347 340 339 356 334 339 334 332 320 325 307 312 304 311 322 316 315 310 298 292
146 142 136 140 138 125 116 113 103 93 98 75 68 46 18 6 356 349 346 344 343 327 320 330 332 317 308 292 301 318 326 311 303 313 318 316 310 311
156 151 137 139 133 134 129 124 119 107 93 78 58 30 13 8 10 357 344 334 329 326 319 318 319 322 324 327 321 321 324 326 316 310 295 303 296 306
159 152 142 142 140 136 136 140 130 107 78 58 50 39 34 6 354 352 347 344 339 334 332 328 330 332 326 323 321 319 324 327 330 330 326 330 314 308